Malmstrom AFB, MT

7:40 PM MDT on April 30, 2017 (GMT -0600)
Malmstrom AFB

Weather History for KGFA - December, 2013

Change the Weather History Date:

Monday, December 2, 2013

  Actual Average (KGTF) Record (KGTF)
Temperature  
Mean Temperature 26 °F -  
Max Temperature 43 °F 36 °F 60 °F (1959)
Min Temperature 8 °F 16 °F -28 °F (1985)
Degree Days  
Heating Degree Days 40    
Moisture  
Dew Point 13 °F    
Average Humidity 81    
Maximum Humidity 93    
Minimum Humidity 68    
Precipitation  
Precipitation 0.20 in - - ()
Snow  
Snow 0.00 in - - ()
Snow Depth 4.00 in    
Sea Level Pressure  
Sea Level Pressure 29.81 in    
Wind  
Wind Speed 11 mph (West)    
Max Wind Speed 20 mph    
Max Gust Speed 31 mph    
Visibility 4 miles    
Events Fog , Rain , Snow    
Averages and records for this station are not official NWS values.
T = Trace of Precipitation, MM = Missing Value Source: NWS Daily Summary

Daily Weather History Graph

Daily Weather History Graph

Search for Another Location

Airport or City:

Trip Planner

Search our weather history database for the weather conditions in past years. The results will help you decide how hot, cold, wet, or windy it might be!

Date:

Astronomy

Dec. 02, 2013 Rise Set
Actual Time 7:53 AM MST 4:35 PM MST
Civil Twilight 7:18 AM MST 5:10 PM MST
Nautical Twilight 6:39 AM MST 5:48 PM MST
Astronomical Twilight 6:02 AM MST 6:26 PM MST
Moon 7:19 AM MST (12/2) 4:43 PM MST (12/2)
Length of Visible Light 9h 52m
Length of Day
8h 41m
Waning Crescent, 0% of the Moon is Illuminated
Dec 2
Waning Crescent
Dec 2
New
Dec 9
First Quarter
Dec 17
Full
Dec 25
Last Quarter

Hourly Weather History & Observations

Time (MST) Temp. Windchill Dew Point Humidity Pressure Visibility Wind Dir Wind Speed Gust Speed Precip Events Conditions
12:56 AM 43.0 °F 36.4 °F 33.1 °F 68% 29.65 in 10.0 mi SW 12.7 mph - 0.00 in   Overcast
1:56 AM 39.0 °F 32.8 °F 36.0 °F 89% 29.66 in 10.0 mi South 9.2 mph - 0.03 in Rain Light Rain
2:56 AM 39.0 °F 32.3 °F 36.0 °F 89% 29.63 in 10.0 mi South 10.4 mph - 0.02 in Rain Light Rain
3:56 AM 41.0 °F 35.2 °F 35.1 °F 79% 29.61 in 10.0 mi SW 9.2 mph - 0.00 in   Mostly Cloudy
4:56 AM 36.0 °F 28.5 °F 33.1 °F 89% 29.60 in 10.0 mi South 10.4 mph - N/A   Scattered Clouds
5:56 AM 37.9 °F 33.5 °F 35.1 °F 89% 29.58 in 10.0 mi SSW 5.8 mph - 0.00 in Rain Light Rain
6:56 AM 36.0 °F 31.1 °F 34.0 °F 93% 29.58 in 10.0 mi SSW 5.8 mph - 0.00 in   Mostly Cloudy
7:56 AM 39.9 °F 35.8 °F 35.1 °F 83% 29.59 in 10.0 mi WSW 5.8 mph - 0.00 in Rain Light Rain
8:56 AM 37.0 °F 29.8 °F 32.0 °F 82% 29.62 in 10.0 mi North 10.4 mph - 0.00 in   Scattered Clouds
9:46 AM 35.6 °F 29.9 °F 32.0 °F 87% 29.51 in 10.0 mi NNW 6.9 mph - N/A   Mostly Cloudy
9:56 AM 36.0 °F 29.6 °F 32.0 °F 86% 29.65 in 10.0 mi NNW 8.1 mph - N/A   Overcast
10:35 AM 26.6 °F 15.7 °F 23.0 °F 86% 29.56 in 1.8 mi WNW 12.7 mph 25.3 mph 0.00 in Snow Light Snow
10:56 AM 27.0 °F 14.7 °F 21.9 °F 81% 29.72 in 2.0 mi NW 16.1 mph 27.6 mph 0.00 in Snow Light Snow
11:05 AM 26.6 °F 13.1 °F 21.2 °F 80% 29.57 in 3.0 mi NW 19.6 mph 31.1 mph 0.00 in Snow Light Snow
11:56 AM 21.0 °F 8.1 °F 16.0 °F 81% 29.79 in 4.0 mi WNW 13.8 mph 20.7 mph 0.00 in Snow Light Snow
12:15 PM 21.2 °F 8.3 °F 17.6 °F 86% 29.64 in - West 13.8 mph - 0.02 in Snow Snow
12:23 PM 19.4 °F 5.5 °F 15.8 °F 86% 29.65 in - West 15.0 mph - 0.04 in Snow Snow
12:30 PM 19.4 °F 5.5 °F 15.8 °F 86% 29.66 in 0.5 mi West 15.0 mph 25.3 mph 0.05 in Snow Snow
12:51 PM 17.6 °F 2.7 °F 15.8 °F 93% 29.65 in 0.5 mi WNW 16.1 mph - 0.07 in Fog , Snow Snow
12:56 PM 18.0 °F 4.2 °F 14.0 °F 84% 29.81 in 0.5 mi NW 13.8 mph - 0.07 in Fog , Snow Snow
1:03 PM 17.6 °F 5.0 °F 14.0 °F 86% 29.63 in - WNW 11.5 mph 20.7 mph 0.00 in Snow Heavy Snow
1:41 PM 15.8 °F 5.1 °F 12.2 °F 86% 29.69 in 0.2 mi WSW 8.1 mph 17.3 mph 0.04 in Fog , Snow Snow
1:56 PM 16.0 °F 1.7 °F 12.0 °F 84% 29.89 in 0.2 mi WSW 13.8 mph 18.4 mph 0.05 in Fog , Snow Snow
2:03 PM 15.8 °F 2.1 °F 10.4 °F 79% 29.71 in - West 12.7 mph - 0.00 in Snow Snow
2:15 PM 15.8 °F 2.7 °F 10.4 °F 79% 29.72 in 0.5 mi West 11.5 mph 20.7 mph 0.00 in Fog , Snow Snow
2:36 PM 15.8 °F 3.4 °F 10.4 °F 79% 29.73 in 0.5 mi West 10.4 mph - 0.01 in Fog , Snow Snow
2:56 PM 14.0 °F -2.0 °F 9.0 °F 80% 29.96 in 0.5 mi West 16.1 mph - 0.02 in Snow Snow
3:03 PM 12.2 °F -1.8 °F 8.6 °F 85% 29.75 in 0.2 mi West 11.5 mph 20.7 mph 0.00 in Fog , Snow Snow
3:12 PM 12.2 °F 1.7 °F 8.6 °F 85% 29.73 in 0.5 mi West 6.9 mph - 0.00 in Fog , Snow Snow
3:31 PM 12.2 °F -0.2 °F 8.6 °F 85% 29.76 in 0.5 mi WNW 9.2 mph - 0.01 in Fog , Snow Light Snow
3:56 PM 12.9 °F 1.6 °F 8.1 °F 81% 29.99 in 0.8 mi West 8.1 mph - 0.01 in Snow Light Snow
4:17 PM 12.2 °F -1.0 °F 6.8 °F 79% 29.78 in 1.0 mi West 10.4 mph - 0.00 in Snow Light Snow
4:28 PM 12.2 °F -2.5 °F 6.8 °F 79% 29.80 in 0.8 mi WNW 12.7 mph - 0.00 in Snow Light Snow
4:34 PM 12.2 °F -4.8 °F 6.8 °F 79% 29.80 in 2.0 mi West 17.3 mph 21.9 mph 0.00 in Snow Light Snow
4:42 PM 10.4 °F -6.6 °F 5.0 °F 79% 29.81 in 4.0 mi WNW 16.1 mph 21.9 mph 0.00 in Snow Light Snow
4:56 PM 10.9 °F -7.5 °F 6.1 °F 81% 30.03 in 2.5 mi WNW 19.6 mph 25.3 mph 0.00 in Snow Light Snow
5:05 PM 10.4 °F -4.1 °F 3.2 °F 73% 29.83 in 6.0 mi WNW 11.5 mph 24.2 mph 0.00 in Snow Light Snow
5:17 PM 10.4 °F -5.4 °F 5.0 °F 79% 29.82 in 7.0 mi West 13.8 mph - 0.00 in Snow Light Snow
5:52 PM 10.4 °F -5.4 °F 5.0 °F 79% 29.84 in 2.0 mi WNW 13.8 mph - 0.00 in Snow Light Snow
5:56 PM 10.0 °F -6.5 °F 3.9 °F 76% 30.07 in 2.5 mi WNW 15.0 mph - 0.00 in Snow Light Snow
6:03 PM 10.4 °F -5.4 °F 3.2 °F 73% 29.86 in 3.0 mi West 13.8 mph 20.7 mph 0.00 in Snow Light Snow
6:48 PM 8.6 °F -6.3 °F 3.2 °F 79% 29.87 in - West 11.5 mph - 0.00 in Snow Snow
6:56 PM 9.0 °F -5.1 °F 3.9 °F 80% 30.11 in - West 10.4 mph - 0.00 in Snow Snow
7:06 PM 8.6 °F -5.5 °F 3.2 °F 79% 29.88 in - WNW 10.4 mph 18.4 mph 0.00 in Snow Snow
7:33 PM 8.6 °F -5.5 °F 3.2 °F 79% 29.89 in - West 10.4 mph 18.4 mph 0.00 in Snow Light Snow
7:56 PM 9.0 °F -5.9 °F 3.9 °F 80% 30.14 in - WSW 11.5 mph - 0.00 in Snow Light Snow
8:09 PM 8.6 °F -6.3 °F 3.2 °F 79% 29.92 in - West 11.5 mph - 0.00 in Snow Light Snow
8:39 PM 8.6 °F -3.7 °F 3.2 °F 79% 29.93 in 1.8 mi West 8.1 mph - 0.00 in Snow Light Snow
8:56 PM 8.1 °F -5.3 °F 3.0 °F 80% 30.17 in 1.5 mi West 9.2 mph - 0.00 in Snow Light Snow
9:08 PM 8.6 °F -3.7 °F 3.2 °F 79% 29.95 in 1.2 mi West 8.1 mph 16.1 mph 0.00 in Snow Light Snow
9:30 PM 8.6 °F -7.0 °F 1.4 °F 73% 29.94 in 1.8 mi West 12.7 mph - 0.00 in Snow Light Snow
9:37 PM 8.6 °F -7.0 °F 1.4 °F 73% 29.94 in 2.5 mi West 12.7 mph - 0.00 in Snow Light Snow
9:56 PM 8.1 °F -7.0 °F 1.9 °F 76% 30.18 in 2.5 mi West 11.5 mph 21.9 mph 0.00 in Snow Light Snow
10:56 PM 8.1 °F -10.7 °F 1.9 °F 76% 30.21 in 2.5 mi West 18.4 mph 24.2 mph 0.00 in Snow Light Snow
11:56 PM 8.1 °F -7.0 °F 1.9 °F 76% 30.26 in - WNW 11.5 mph 20.7 mph 0.00 in   Overcast